Back to catalog

STARLINK-3626

AliveCommunicationsVLEO
NORAD 51792·PAYLOAD·🇺🇸 United States

Launched Feb 25, 2022 from Vandenberg Space Force Base

Loading…

Next Passes (next 24 hours)

TLE

FreshSource: CelesTrak SupGP

Epoch: Sep 14, 2026, 21:55 UTC

1 51792C 22017AA  26257.91368056 -.00018025  00000+0 -54698-3 0  2575
2 51792  53.1584 205.9833 0001346  94.1001 295.0074 15.33555950    10

Track STARLINK-3626 in real time with AllMySat

Download on the App Store